When you browse on this site, cookies collect data to enhance your experience and personalize the content and advertising you see.
Visit our Privacy Policy to learn more. By continuing to use the site, you agree to this use of cookies and data.
  • în România
  • Lista ţărilor
  • Pe 7 zile
  • Temperatura apei
  • Meteo pe hartă
  • Widget-uri
  • user-avatar
    Intrare

    Meteo pe oră la Igls

    Astăzi, 18 Februarie, Marţi

    Timp Temperatura Precipitaţii Vânt Presiune Umiditate
    00:00 +5°C° 1.1 mm 1 m/s 687 mmHg 97%
    01:00 +4°C° 1.1 mm 1 m/s 688 mmHg 98%
    02:00 +4°C° 0.7 mm 1 m/s 688 mmHg 97%
    03:00 +4°C° 0.7 mm 1 m/s 688 mmHg 97%
    04:00 +4°C° 0.7 mm 1 m/s 688 mmHg 97%
    05:00 +3°C° 0.3 mm 1 m/s 688 mmHg 97%
    06:00 +3°C° 0.3 mm 1 m/s 689 mmHg 97%
    07:00 +2°C° 0.3 mm 1 m/s 689 mmHg 97%
    08:00 +3°C° 0.1 mm 1 m/s 689 mmHg 94%
    09:00 +3°C° 0.1 mm 1 m/s 690 mmHg 91%
    10:00 +4°C° 0.1 mm 1 m/s 690 mmHg 88%
    11:00 +5°C° 0.1 mm 1 m/s 690 mmHg 87%
    12:00 +5°C° 0.1 mm 1 m/s 690 mmHg 85%
    13:00 +5°C° 0.1 mm 1 m/s 690 mmHg 84%
    14:00 +5°C° 0 mm 1 m/s 689 mmHg 83%
    15:00 +5°C° 0 mm 1 m/s 689 mmHg 82%
    16:00 +5°C° 0 mm 1 m/s 689 mmHg 81%
    17:00 +4°C° 0 mm 1 m/s 689 mmHg 85%
    18:00 +3°C° 0 mm 1 m/s 689 mmHg 89%
    19:00 +1°C° 0 mm 1 m/s 689 mmHg 93%
    20:00 +1°C° 0 mm 1 m/s 689 mmHg 93%
    21:00 0°C° 0 mm 0 m/s 689 mmHg 93%
    22:00 0°C° 0 mm 0 m/s 689 mmHg 92%
    23:00 -1°C° 0 mm 0 m/s 689 mmHg 90%

    Mâine, 19 Februarie, Miercuri

    Timp Temperatura Precipitaţii Vânt Presiune Umiditate
    00:00 0°C° 0 mm 1 m/s 688 mmHg 88%
    01:00 -1°C° 0 mm 1 m/s 688 mmHg 86%
    02:00 -1°C° 0 mm 1 m/s 687 mmHg 84%
    03:00 -1°C° 0 mm 1 m/s 687 mmHg 82%
    04:00 -1°C° 0 mm 1 m/s 686 mmHg 80%
    05:00 -1°C° 0 mm 1 m/s 686 mmHg 78%
    06:00 -1°C° 0 mm 1 m/s 686 mmHg 77%
    07:00 0°C° 0 mm 1 m/s 685 mmHg 76%
    08:00 +1°C° 0 mm 1 m/s 686 mmHg 72%
    09:00 +3°C° 0 mm 1 m/s 686 mmHg 68%
    10:00 +4°C° 0 mm 1 m/s 686 mmHg 64%
    11:00 +4°C° 0.1 mm 1 m/s 685 mmHg 64%
    12:00 +4°C° 0.1 mm 2 m/s 685 mmHg 64%
    13:00 +4°C° 0.1 mm 2 m/s 685 mmHg 64%
    14:00 +4°C° 0.6 mm 2 m/s 685 mmHg 70%
    15:00 +2°C° 0.6 mm 3 m/s 685 mmHg 76%
    16:00 +1°C° 0.6 mm 3 m/s 685 mmHg 82%
    17:00 0°C° 0.7 mm 3 m/s 685 mmHg 86%
    18:00 -1°C° 0.7 mm 2 m/s 686 mmHg 91%
    19:00 -1°C° 0.7 mm 2 m/s 687 mmHg 95%
    20:00 -1°C° 0.6 mm 2 m/s 687 mmHg 95%
    21:00 0°C° 0.6 mm 1 m/s 687 mmHg 95%
    22:00 0°C° 0.6 mm 1 m/s 688 mmHg 95%
    23:00 0°C° 0.2 mm 1 m/s 688 mmHg 93%

    Poimâine, 20 Februarie, Joi

    Timp Temperatura Precipitaţii Vânt Presiune Umiditate
    00:00 -1°C° 0.2 mm 1 m/s 687 mmHg 91%
    01:00 -1°C° 0.2 mm 1 m/s 687 mmHg 89%
    02:00 -1°C° 0 mm 1 m/s 687 mmHg 87%
    03:00 -1°C° 0 mm 1 m/s 687 mmHg 84%
    04:00 -1°C° 0 mm 1 m/s 686 mmHg 81%
    05:00 -1°C° 0 mm 1 m/s 686 mmHg 79%
    06:00 -1°C° 0 mm 1 m/s 686 mmHg 76%
    07:00 0°C° 0 mm 1 m/s 686 mmHg 74%
    08:00 +2°C° 0 mm 1 m/s 687 mmHg 71%
    09:00 +3°C° 0 mm 1 m/s 687 mmHg 68%
    10:00 +5°C° 0 mm 1 m/s 687 mmHg 65%
    11:00 +6°C° 0 mm 1 m/s 687 mmHg 66%
    12:00 +7°C° 0 mm 1 m/s 687 mmHg 67%
    13:00 +8°C° 0 mm 1 m/s 687 mmHg 69%
    14:00 +8°C° 0 mm 1 m/s 686 mmHg 71%
    15:00 +8°C° 0 mm 1 m/s 686 mmHg 74%
    16:00 +8°C° 0 mm 1 m/s 686 mmHg 76%
    17:00 +6°C° 0 mm 1 m/s 686 mmHg 76%
    18:00 +4°C° 0 mm 2 m/s 686 mmHg 75%
    19:00 +2°C° 0 mm 2 m/s 686 mmHg 74%
    20:00 +2°C° 0 mm 2 m/s 686 mmHg 71%
    21:00 +2°C° 0 mm 2 m/s 686 mmHg 67%
    22:00 +2°C° 0 mm 2 m/s 686 mmHg 64%
    23:00 +3°C° 0 mm 1 m/s 686 mmHg 62%

    21 Februarie, Vineri

    Timp Temperatura Precipitaţii Vânt Presiune Umiditate
    00:00 +3°C° 0 mm 1 m/s 686 mmHg 60%
    01:00 +3°C° 0 mm 1 m/s 686 mmHg 58%
    02:00 +3°C° 0 mm 1 m/s 687 mmHg 60%
    03:00 +2°C° 0 mm 1 m/s 687 mmHg 62%
    04:00 +2°C° 0 mm 1 m/s 687 mmHg 64%
    05:00 +2°C° 0 mm 1 m/s 687 mmHg 67%
    06:00 +1°C° 0 mm 2 m/s 688 mmHg 70%
    07:00 +1°C° 0 mm 2 m/s 688 mmHg 73%
    14:00 +5°C° 0 mm 2 m/s 691 mmHg 90%
    15:00 +4°C° 0.1 mm 2 m/s 691 mmHg 94%
    16:00 +5°C° 0.1 mm 1 m/s 691 mmHg 95%
    17:00 +4°C° 0 mm 1 m/s 691 mmHg 95%
    18:00 +3°C° 0 mm 1 m/s 692 mmHg 96%
    19:00 +3°C° 0 mm 1 m/s 692 mmHg 96%
    20:00 +2°C° 0 mm 1 m/s 692 mmHg 92%
    21:00 +2°C° 0 mm 1 m/s 692 mmHg 87%
    22:00 +1°C° 0 mm 1 m/s 692 mmHg 83%
    23:00 +1°C° 0 mm 1 m/s 692 mmHg 78%

    22 Februarie, Sâmbătă

    Timp Temperatura Precipitaţii Vânt Presiune Umiditate
    00:00 +1°C° 0 mm 1 m/s 692 mmHg 73%
    01:00 +2°C° 0 mm 1 m/s 692 mmHg 68%
    02:00 +2°C° 0 mm 1 m/s 692 mmHg 66%
    03:00 +2°C° 0 mm 1 m/s 692 mmHg 63%
    04:00 +2°C° 0 mm 1 m/s 692 mmHg 61%
    05:00 +2°C° 0 mm 1 m/s 692 mmHg 58%
    06:00 +2°C° 0 mm 1 m/s 692 mmHg 55%
    07:00 +2°C° 0 mm 1 m/s 692 mmHg 52%
    08:00 +4°C° 0 mm 1 m/s 693 mmHg 54%
    09:00 +6°C° 0 mm 1 m/s 693 mmHg 55%
    10:00 +8°C° 0 mm 1 m/s 694 mmHg 57%
    11:00 +9°C° 0 mm 1 m/s 693 mmHg 59%
    12:00 +10°C° 0 mm 1 m/s 693 mmHg 61%
    13:00 +11°C° 0 mm 1 m/s 693 mmHg 63%
    14:00 +10°C° 0 mm 1 m/s 693 mmHg 66%
    15:00 +9°C° 0 mm 0 m/s 692 mmHg 68%
    16:00 +9°C° 0 mm 0 m/s 692 mmHg 70%
    17:00 +8°C° 0 mm 1 m/s 692 mmHg 66%
    18:00 +7°C° 0 mm 1 m/s 692 mmHg 63%
    19:00 +6°C° 0 mm 1 m/s 692 mmHg 59%
    20:00 +5°C° 0 mm 1 m/s 693 mmHg 58%
    21:00 +5°C° 0 mm 1 m/s 693 mmHg 56%
    22:00 +4°C° 0 mm 2 m/s 693 mmHg 55%
    23:00 +5°C° 0 mm 1 m/s 693 mmHg 54%

    23 Februarie, Duminică

    Timp Temperatura Precipitaţii Vânt Presiune Umiditate
    00:00 +5°C° 0 mm 1 m/s 693 mmHg 53%
    01:00 +5°C° 0 mm 1 m/s 693 mmHg 52%
    02:00 +5°C° 0 mm 1 m/s 693 mmHg 52%
    03:00 +4°C° 0 mm 2 m/s 693 mmHg 53%
    04:00 +4°C° 0 mm 2 m/s 692 mmHg 53%
    05:00 +4°C° 0 mm 2 m/s 692 mmHg 53%
    06:00 +4°C° 0 mm 2 m/s 692 mmHg 53%
    07:00 +4°C° 0 mm 2 m/s 692 mmHg 53%
    08:00 +6°C° 0 mm 2 m/s 693 mmHg 56%
    09:00 +8°C° 0 mm 1 m/s 693 mmHg 58%
    10:00 +10°C° 0 mm 1 m/s 693 mmHg 61%
    11:00 +11°C° 0 mm 1 m/s 693 mmHg 63%
    12:00 +11°C° 0 mm 1 m/s 692 mmHg 66%
    13:00 +12°C° 0 mm 1 m/s 692 mmHg 68%
    14:00 +12°C° 0 mm 1 m/s 692 mmHg 71%
    15:00 +12°C° 0 mm 1 m/s 691 mmHg 74%
    16:00 +11°C° 0 mm 1 m/s 691 mmHg 78%
    17:00 +10°C° 0 mm 1 m/s 691 mmHg 77%
    18:00 +9°C° 0 mm 1 m/s 691 mmHg 77%
    19:00 +7°C° 0 mm 2 m/s 691 mmHg 76%
    20:00 +8°C° 0 mm 1 m/s 691 mmHg 76%
    21:00 +7°C° 0 mm 1 m/s 691 mmHg 76%
    22:00 +7°C° 0 mm 1 m/s 691 mmHg 76%
    23:00 +7°C° 0 mm 1 m/s 691 mmHg 75%
    Arată mai mult